Wind_Speed
14 16 17 18 19 19 20 20 20 19 19 18 18 18 18 18 18 19 19 18 18 17 17 17 17 16 16 15 15 14 13 11 10
17 18 19 19 19 19 19 19 19 19 19 18 17 18 18 18 19 19 19 21 18 19 19 18 18 17 18 18 17 16 15 14 13
19 20 21 20 20 19 19 18 18 18 18 17 17 17 17 17 18 18 20 19 18 19 19 19 18 18 19 20 19 18 18 17 15
21 22 22 22 21 20 19 18 18 18 18 18 18 18 18 19 18 18 21 18 19 19 18 19 19 18 19 19 20 21 20 20 19
24 24 24 23 22 21 20 19 18 18 18 18 18 17 18 18 18 19 18 20 19 18 18 18 19 20 21 19 19 20 22 23 21
22 22 22 22 21 20 20 19 19 18 18 17 16 16 16 16 16 17 15 17 17 16 16 17 18 19 21 22 24 25 24 23 24
22 22 22 20 19 19 19 19 18 19 19 18 17 17 16 16 16 16 16 17 17 18 17 17 17 17 18 19 21 22 24 25 26
21 21 20 18 18 18 18 18 18 19 19 19 18 17 17 16 17 15 17 18 19 19 19 18 18 19 20 20 21 21 21 22 25
21 21 19 18 18 17 17 18 18 17 18 18 17 16 16 16 17 14 17 18 19 19 19 19 20 20 21 22 22 21 21 22 22
21 21 22 20 18 18 18 17 16 15 15 15 15 15 15 17 18 16 18 18 19 19 20 20 21 21 22 22 22 22 22 23 23
20 22 23 22 21 19 18 18 17 15 15 16 15 17 16 17 18 19 17 19 19 19 20 20 21 21 22 22 23 23 23 24 25
24 24 24 24 24 22 20 19 18 17 18 17 17 18 19 19 19 20 20 19 20 20 21 21 21 21 22 22 22 23 23 24 25
26 27 27 26 25 25 23 21 20 18 18 18 19 20 20 21 22 22 22 22 21 21 22 22 22 22 23 23 23 23 24 25 26
26 26 26 24 23 23 22 20 20 19 18 18 19 20 21 21 22 22 22 22 23 23 23 24 23 24 24 24 24 24 25 25 26
24 23 23 23 22 21 20 18 17 17 18 19 19 20 20 20 20 20 21 21 22 23 24 24 24 24 25 25 26 27 27 28 29
23 22 21 21 21 21 20 19 18 18 18 18 18 18 18 19 19 19 20 21 22 23 24 24 24 24 25 25 26 27 27 28 30
23 22 21 20 20 20 20 19 19 18 19 20 20 21 22 17 20 21 21 22 22 23 23 24 25 25 26 26 26 27 28 29 29
23 22 22 21 20 20 21 21 21 21 21 21 22 23 22 22 20 20 21 22 23 23 23 24 25 26 27 27 27 28 29 29 30
23 23 22 21 21 20 21 22 23 22 22 22 21 23 25 26 24 24 22 22 25 25 26 26 27 27 28 29 29 30 31 32 32
23 22 22 21 20 20 20 21 22 23 24 25 26 26 26 27 29 26 26 29 28 26 29 31 30 30 31 31 31 31 31 32 33
Wind_Direction
311 308 307 305 304 303 300 296 293 290 288 286 284 283 283 281 279 277 273 275 278 274 273 273 271 268 270 271 276 279 280 283 286
311 311 311 311 309 306 301 296 294 292 290 287 285 284 281 279 278 279 278 275 274 272 272 270 267 266 264 266 268 274 276 278 277
314 314 311 308 305 302 299 298 295 294 292 290 288 284 281 278 277 279 276 277 276 271 269 267 265 262 264 266 267 269 271 274 274
315 313 311 308 306 303 301 299 296 294 293 292 289 286 284 282 282 278 277 284 277 277 273 270 267 262 260 260 262 262 265 267 267
315 314 312 308 306 304 301 300 299 300 300 299 295 291 285 281 278 278 284 282 282 281 278 274 269 267 265 264 265 266 265 264 264
319 320 317 311 306 305 303 299 299 298 297 299 296 296 292 286 280 277 279 279 279 277 274 274 271 268 265 263 263 261 261 262 262
324 324 322 318 311 308 305 303 300 298 298 296 295 291 290 286 283 283 281 279 279 280 280 279 279 274 271 268 266 264 262 260 260
322 322 320 318 312 312 310 306 303 301 299 297 295 292 289 288 285 288 281 280 280 281 281 279 277 275 273 270 269 269 269 266 262
322 319 317 317 314 312 311 310 310 309 302 296 294 290 288 286 285 285 282 282 281 279 278 276 274 272 272 272 272 271 269 268 266
322 318 314 312 310 309 308 307 308 306 307 303 296 289 286 284 285 286 283 281 281 280 279 278 277 275 274 274 274 273 272 270 268
315 313 311 311 308 305 304 303 304 303 300 295 290 285 282 281 282 284 281 282 280 279 279 279 279 279 277 277 277 277 275 273 271
311 310 308 308 307 304 303 303 302 300 295 292 287 284 285 284 283 283 283 279 281 281 281 280 279 278 278 278 277 276 275 274 274
309 310 309 306 303 300 299 299 297 297 295 291 289 290 289 289 289 287 286 285 282 280 280 280 279 278 277 277 275 273 272 272 273
310 311 311 312 311 303 297 294 293 295 295 292 290 290 289 289 289 289 288 287 287 286 284 284 283 281 279 277 275 274 273 271 271
310 311 313 313 315 310 301 296 295 293 291 290 290 289 289 289 289 287 286 286 284 285 285 284 283 284 283 282 282 282 281 281 280
309 309 310 310 312 311 307 304 301 299 295 293 295 295 297 294 292 290 288 287 287 289 290 290 289 287 285 285 283 282 282 282 283
308 307 306 306 307 306 305 303 301 299 300 301 301 301 298 294 294 295 294 293 292 290 290 289 288 287 287 286 286 286 285 283 282
305 304 303 304 303 303 303 302 301 302 303 305 306 305 302 301 297 295 295 293 292 292 291 291 292 292 291 291 291 290 289 287 287
303 304 304 303 302 302 302 303 303 303 303 304 304 305 304 302 298 300 294 293 295 296 295 295 294 292 291 291 291 290 290 290 290
303 303 302 302 302 302 302 301 299 299 302 303 303 301 299 299 299 298 297 299 295 293 296 295 295 293 292 292 292 291 291 290 290
Height
3159 3157 3155 3154 3152 3151 3150 3148 3147 3146 3145 3144 3143 3143 3142 3142 3141 3141 3141 3141 3140 3140 3140 3140 3141 3141 3141 3141 3141 3141 3142 3142 3141
3157 3155 3153 3151 3149 3148 3146 3145 3143 3143 3142 3141 3140 3139 3139 3138 3138 3137 3137 3136 3136 3136 3136 3137 3137 3138 3138 3138 3138 3139 3139 3139 3139
3155 3153 3150 3148 3146 3144 3143 3141 3140 3139 3138 3138 3137 3136 3135 3134 3134 3134 3132 3132 3133 3133 3133 3133 3133 3134 3134 3135 3135 3136 3136 3136 3137
3152 3150 3147 3145 3143 3141 3139 3138 3137 3135 3135 3134 3133 3132 3132 3131 3130 3129 3128 3129 3128 3129 3129 3129 3130 3130 3130 3130 3130 3131 3132 3133 3133
3149 3146 3144 3141 3139 3138 3136 3134 3133 3132 3131 3130 3128 3127 3127 3126 3126 3125 3126 3125 3124 3125 3125 3126 3126 3126 3126 3127 3127 3127 3128 3128 3129
3146 3143 3141 3138 3136 3135 3133 3132 3130 3129 3127 3126 3125 3124 3124 3122 3122 3120 3122 3121 3121 3121 3121 3121 3121 3121 3122 3122 3123 3123 3124 3124 3125
3142 3140 3138 3135 3133 3132 3131 3129 3127 3126 3124 3123 3122 3121 3121 3120 3119 3118 3118 3118 3117 3117 3117 3117 3117 3117 3118 3117 3117 3118 3119 3119 3120
3140 3137 3135 3133 3131 3129 3128 3126 3125 3123 3122 3120 3119 3119 3118 3117 3116 3116 3115 3114 3114 3113 3113 3113 3113 3112 3112 3113 3113 3113 3114 3114 3115
3137 3135 3133 3130 3128 3126 3125 3123 3121 3120 3118 3117 3116 3116 3115 3114 3112 3113 3111 3110 3109 3109 3109 3109 3108 3108 3107 3107 3108 3109 3109 3109 3109
3135 3133 3131 3128 3125 3123 3121 3120 3118 3117 3116 3114 3113 3112 3111 3111 3109 3108 3107 3106 3106 3105 3105 3104 3104 3104 3103 3103 3103 3103 3104 3104 3104
3132 3130 3128 3125 3123 3120 3118 3116 3114 3112 3112 3111 3110 3109 3108 3106 3105 3104 3104 3103 3102 3101 3100 3100 3099 3099 3099 3099 3099 3099 3099 3098 3099
3129 3127 3124 3122 3120 3118 3115 3112 3111 3109 3108 3107 3106 3105 3104 3103 3101 3100 3099 3099 3097 3097 3096 3095 3095 3094 3094 3094 3094 3094 3094 3094 3094
3125 3122 3120 3118 3115 3113 3111 3108 3107 3105 3104 3103 3102 3101 3100 3099 3098 3097 3096 3094 3093 3093 3091 3090 3090 3089 3088 3088 3088 3088 3088 3087 3088
3121 3119 3116 3113 3110 3108 3106 3104 3103 3101 3099 3098 3097 3096 3095 3093 3092 3091 3090 3089 3088 3087 3086 3085 3084 3084 3083 3082 3082 3082 3081 3081 3081
3118 3115 3112 3109 3106 3104 3101 3099 3098 3097 3095 3093 3092 3090 3089 3088 3087 3086 3085 3084 3082 3081 3080 3080 3079 3078 3078 3078 3077 3077 3076 3075 3074
3113 3111 3108 3105 3103 3101 3098 3096 3094 3093 3091 3090 3088 3086 3085 3083 3082 3080 3079 3078 3077 3076 3075 3075 3073 3073 3072 3071 3070 3070 3069 3068 3067
3109 3107 3104 3102 3099 3097 3095 3093 3091 3089 3088 3086 3084 3083 3081 3080 3078 3076 3075 3074 3072 3071 3070 3068 3067 3066 3064 3064 3063 3062 3062 3061 3060
3105 3103 3101 3098 3096 3093 3092 3090 3089 3087 3085 3083 3081 3078 3076 3074 3073 3072 3070 3068 3067 3065 3064 3063 3062 3060 3059 3058 3057 3056 3055 3054 3052
3101 3099 3097 3094 3092 3090 3088 3087 3085 3083 3081 3079 3077 3074 3072 3068 3068 3066 3064 3063 3061 3059 3058 3057 3056 3054 3052 3051 3050 3049 3047 3046 3045
3097 3095 3092 3090 3088 3086 3084 3083 3081 3079 3077 3074 3072 3070 3067 3064 3061 3060 3058 3055 3054 3053 3051 3049 3048 3047 3045 3044 3043 3041 3040 3038 3037